Location: Clover
(42.5131°N, 114.6874°W)
Time: 12:16:38
(UTC+00:00)

ARIANE 6 FM1 Upper Stage - Pass Details

Date: 22 January 2026
Orbit: 522 x 609 km, 62.0° (Epoch: 11 February)

Event Time Altitude Azimuth Distance (km) Brightness Sun altitude
Rises 03:09:09 0° 232° (SW) 2,710 6.9 -27.5°
Reaches altitude 10° 03:11:27 10° 238° (WSW) 1,806 6.0 -27.9°
Enters shadow 03:14:16 36° 269° (W) 863 4.0 -28.5°
